Location: Newark
(33.6439°N, 114.9881°W)
Time: 17:19:06
(UTC+00:00)

A-11 Canister half - Pass Details

Date: 27 August 2019
Orbit: 1527 x 1682 km, 47.3° (Epoch: 16 September)

Event Time Altitude Azimuth Distance (km) Brightness Sun altitude
Rises 14:38:00 0° 170° (S) 4,737 11.7 17.2°
Reaches altitude 10° 14:43:29 10° 145° (SE) 3,793 11.7 18.4°
Maximum altitude 14:47:19 13° 121° (ESE) 3,586 12.2 19.2°
Drops below altitude 10° 14:51:11 10° 97° (E) 3,850 13.4 20.0°
Sets 14:56:47 0° 73° (ENE) 4,876 12.9 21.1°
